Flag for U.S.A. Weather past 2 weeks in St. George, Utah, U.S.A.

Now
72 °F

Clear.


Feels Like: 77 °F
Forecast: 62 / 89 °F
Wind: No wind

Location: Saint George

Current Time: Sep 23, 2014 at 12:54:10 AM

Latest Report: Sep 23, 2014 at 12:35 AM


Visibility: 10 mi

Pressure: 30.06 "Hg

Humidity: 41%

Dew point: 46 °F

Location of St. GeorgeLocation

Historic Weather in St. George — Graph

°F

St. George temperature yesterday

Maximum temperature yesterday: 91 °F (at 4:55 PM)
Minimum temperature yesterday: 63 °F (at 6:35 AM)
Average temperature yesterday: 76 °F

Past Weeks' High & Low Weather Summary

 TemperatureHumidityPressure
High99 °F (Sep 15, 4:55 PM)83% (Sep 8, 6:35 PM)30.15 "Hg (Sep 8, 6:35 PM)
Low61 °F (Sep 11, 6:35 AM)12% (Sep 11, 5:55 PM)29.76 "Hg (Sep 18, 4:35 PM)
Average79 °F40%29.97 "Hg
* Reported Sep 7 11:15 PM — Sep 22 11:35 PM, St. George, Weather by CustomWeather, © 2014

Note: Actual official high and low records may vary slightly from our data, if they occured in-between our weather recording intervals... More about our weather records

Advertising

St. George weather history for previous 24 hours

 ConditionsComfort  
Time TempWeatherWind HumidityBarometerVisibility
11:35 PM
Sep 22
73 °FClear.No wind38%30.06 "Hg10 mi
11:15 PM75 °FClear.No wind36%30.06 "Hg10 mi
10:55 PM73 °FClear.No wind38%30.05 "Hg10 mi
10:35 PM75 °FClear.No wind36%30.04 "Hg10 mi
10:15 PM77 °FClear.3 mph34%30.04 "Hg10 mi
9:55 PM75 °FClear.3 mph34%30.04 "Hg10 mi
9:35 PM81 °FClear.3 mph26%30.04 "Hg10 mi
9:15 PM82 °FClear.5 mph25%30.03 "Hg10 mi
8:55 PM82 °FClear.5 mph23%30.03 "Hg10 mi
8:35 PM82 °FClear.5 mph25%30.02 "Hg10 mi
8:15 PM84 °FSunny.3 mph22%30.02 "Hg10 mi
7:55 PM84 °FSunny.7 mph22%30.01 "Hg10 mi
7:35 PM86 °FSunny.6 mph20%30.01 "Hg10 mi
7:15 PM88 °FSunny.7 mph19%30.01 "Hg10 mi
6:55 PM88 °FSunny.5 mph18%30.01 "Hg10 mi
6:35 PM90 °FSunny.7 mph17%30.01 "Hg10 mi
6:15 PM90 °FSunny.6 mph18%30.01 "Hg10 mi
5:55 PM90 °FSunny.8 mph18%30.01 "Hg10 mi
5:35 PM90 °FSunny.No wind21%30.01 "Hg10 mi
5:15 PM91 °FSunny.3 mph20%30.02 "Hg10 mi
4:55 PM91 °FSunny.6 mph20%30.02 "Hg10 mi
4:35 PM90 °FSunny.8 mph21%30.03 "Hg10 mi
4:15 PM90 °FSunny.7 mph21%30.04 "Hg10 mi
3:55 PM90 °FSunny.6 mph21%30.04 "Hg10 mi
3:35 PM88 °FSunny.No wind22%30.05 "Hg10 mi
3:15 PM88 °FSunny.6 mph22%30.06 "Hg10 mi
2:55 PM88 °FSunny.7 mph22%30.06 "Hg10 mi
2:35 PM88 °FSunny.5 mph24%30.07 "Hg10 mi
1:55 PM86 °FSunny.3 mph33%30.09 "Hg10 mi
1:35 PM82 °FSunny.No wind37%30.11 "Hg10 mi
1:15 PM82 °FSunny.3 mph37%30.11 "Hg10 mi
12:55 PM82 °FSunny.No wind37%30.12 "Hg10 mi
12:35 PM81 °FSunny.3 mph39%30.12 "Hg10 mi
12:15 PM79 °FSunny.3 mph42%30.13 "Hg10 mi
11:55 AM79 °FSunny.No wind42%30.13 "Hg10 mi
11:35 AM75 °FSunny.No wind47%30.14 "Hg10 mi
11:15 AM75 °FSunny.No wind47%30.14 "Hg10 mi
10:55 AM73 °FSunny.No wind50%30.15 "Hg10 mi
10:35 AM73 °FSunny.No wind50%30.15 "Hg10 mi
10:15 AM72 °FSunny.No wind53%30.15 "Hg10 mi
9:55 AM70 °FSunny.3 mph57%30.15 "Hg10 mi
9:35 AM70 °FSunny.3 mph60%30.15 "Hg10 mi
9:15 AM68 °FSunny.No wind64%30.14 "Hg10 mi
8:55 AM66 °FSunny.3 mph68%30.13 "Hg10 mi
8:35 AM64 °FSunny.5 mph73%30.13 "Hg10 mi
8:15 AM64 °FClear.No wind73%30.13 "Hg10 mi
7:55 AM63 °FClear.3 mph77%30.12 "Hg10 mi
7:35 AM63 °FClear.3 mph77%30.12 "Hg10 mi
7:15 AM64 °FClear.5 mph68%30.11 "Hg10 mi
6:55 AM64 °FClear.3 mph73%30.10 "Hg10 mi
6:35 AM63 °FClear.6 mph77%30.10 "Hg10 mi
6:15 AM64 °FClear.5 mph73%30.10 "Hg10 mi
5:55 AM66 °FClear.6 mph68%30.09 "Hg10 mi
5:35 AM66 °FClear.No wind68%30.09 "Hg10 mi
5:15 AM64 °FClear.No wind73%30.08 "Hg10 mi
4:55 AM66 °FClear.5 mph68%30.08 "Hg10 mi
4:35 AM64 °FClear.7 mph73%30.08 "Hg10 mi
4:15 AM64 °FClear.6 mph78%30.08 "Hg10 mi
3:55 AM68 °FClear.3 mph64%30.08 "Hg10 mi
3:35 AM66 °FClear.3 mph73%30.07 "Hg10 mi
2:55 AM66 °FClear.5 mph73%30.07 "Hg10 mi
2:35 AM68 °FClear.7 mph69%30.08 "Hg10 mi
2:15 AM68 °FClear.N/A73%30.08 "Hg10 mi
1:55 AM68 °FClear.5 mph73%30.08 "Hg10 mi
1:35 AM68 °FClear.No wind73%30.07 "Hg10 mi
1:15 AM68 °FClear.7 mph73%30.06 "Hg10 mi
12:55 AM70 °FClear.6 mph64%30.06 "Hg10 mi
12:35 AM70 °FClear.9 mph64%30.06 "Hg10 mi
Weather by CustomWeather, © 2014

See weather overviewHow to use our weather pages